Shawano, WI

3:28 AM CDT on May 24, 2018 (GMT -0500)
Shawano

Weather History for KEZS - December, 2013

Change the Weather History Date:

Monday, December 30, 2013

  Actual Average (WUND) Record (WUND)
Temperature  
Mean Temperature -4 °F -  
Max Temperature 2 °F - - (-1)
Min Temperature -11 °F - - (-1)
Degree Days  
Heating Degree Days 70    
Moisture  
Dew Point -13 °F    
Average Humidity 63    
Maximum Humidity 75    
Minimum Humidity 46    
Precipitation  
Precipitation 0.00 in - - ()
Sea Level Pressure  
Sea Level Pressure 30.20 in    
Wind  
Wind Speed 4 mph (WSW)    
Max Wind Speed 8 mph    
Max Gust Speed 16 mph    
Visibility 9 miles    
Events Snow    
Averages and records for this station are not official NWS values.
T = Trace of Precipitation, MM = Missing Value Source: NWS Daily Summary

Daily Weather History Graph

Daily Weather History Graph

Search for Another Location

Airport or City:

Astronomy

Dec. 30, 2013 Rise Set
Actual Time 7:31 AM CST 4:22 PM CST
Civil Twilight 6:58 AM CST 4:55 PM CST
Nautical Twilight 6:21 AM CST 5:32 PM CST
Astronomical Twilight 5:45 AM CST 6:08 PM CST
Moon 5:19 AM CST (12/30) 2:57 PM CST (12/30)
Length of Visible Light 9h 57m
Length of Day
8h 50m
Waning Crescent, 4% of the Moon is Illuminated
Dec 30
Waning Crescent
Jan 1
New
Jan 7
First Quarter
Jan 15
Full
Jan 23
Last Quarter

Hourly Weather History & Observations

Time (CST) Temp. Windchill Dew Point Humidity Pressure Visibility Wind Dir Wind Speed Gust Speed Precip Events Conditions
12:15 AM -2.6 °F -16.0 °F -10.5 °F 69% 30.18 in 10.0 mi WNW 6.9 mph - N/A   Clear
12:35 AM -3.6 °F -15.9 °F -11.0 °F 71% 30.19 in 10.0 mi West 5.8 mph - N/A   Clear
12:55 AM -4.2 °F -14.8 °F -11.6 °F 71% 30.20 in 10.0 mi West 4.6 mph - N/A   Clear
1:15 AM -4.7 °F -13.2 °F -12.3 °F 70% 30.20 in 10.0 mi West 3.5 mph - N/A   Clear
1:35 AM -5.4 °F - -12.8 °F 70% 30.21 in 10.0 mi Calm Calm - N/A   Clear
1:55 AM -6.2 °F - -13.0 °F 72% 30.21 in 10.0 mi Calm Calm - N/A   Clear
2:15 AM -7.1 °F -15.9 °F -13.7 °F 73% 30.21 in 10.0 mi West 3.5 mph - N/A   Clear
2:35 AM -7.2 °F - -13.7 °F 73% 30.21 in 10.0 mi Calm Calm - N/A   Clear
2:55 AM -7.8 °F -16.7 °F -13.9 °F 75% 30.22 in 10.0 mi West 3.5 mph - N/A   Clear
3:15 AM -8.0 °F - -14.3 °F 74% 30.21 in 10.0 mi Calm Calm - N/A   Clear
3:35 AM -8.5 °F -17.6 °F -14.8 °F 74% 30.21 in 10.0 mi West 3.5 mph - N/A   Clear
3:55 AM -8.9 °F -18.0 °F -15.5 °F 73% 30.21 in 10.0 mi West 3.5 mph - N/A   Clear
4:15 AM -9.4 °F - -15.5 °F 74% 30.20 in 10.0 mi Calm Calm - N/A   Clear
4:35 AM -9.8 °F - -16.2 °F 73% 30.20 in 10.0 mi Calm Calm - N/A   Clear
4:55 AM -9.8 °F - -16.4 °F 72% 30.21 in 10.0 mi Calm Calm - N/A   Clear
5:15 AM -10.3 °F - -16.8 °F 73% 30.21 in 10.0 mi Calm Calm - N/A   Clear
5:35 AM -10.5 °F - -17.0 °F 73% 30.21 in 10.0 mi Calm Calm - N/A   Clear
5:55 AM -10.5 °F -19.8 °F -17.1 °F 72% 30.22 in 10.0 mi WSW 3.5 mph - N/A   Clear
6:15 AM -10.3 °F - -17.0 °F 72% 30.23 in 10.0 mi Calm Calm - N/A   Clear
6:35 AM -10.5 °F -19.8 °F -17.5 °F 71% 30.23 in 10.0 mi West 3.5 mph - N/A   Clear
6:55 AM -10.8 °F - -17.9 °F 71% 30.23 in 10.0 mi Calm Calm - N/A   Clear
7:15 AM -11.2 °F -23.0 °F -18.2 °F 71% 30.23 in 10.0 mi WSW 4.6 mph - N/A   Clear
7:35 AM -11.2 °F - -18.4 °F 70% 30.23 in 10.0 mi Calm Calm - N/A   Clear
7:55 AM -11.2 °F - -18.4 °F 70% 30.24 in 10.0 mi Calm Calm - N/A   Clear
8:15 AM -10.3 °F -21.9 °F -17.5 °F 71% 30.25 in 10.0 mi SW 4.6 mph - N/A   Clear
8:35 AM -10.5 °F -22.1 °F -17.9 °F 70% 30.26 in 10.0 mi WSW 4.6 mph - N/A   Clear
8:55 AM -9.6 °F -21.1 °F -17.5 °F 68% 30.26 in 10.0 mi WSW 4.6 mph - N/A   Clear
9:15 AM -8.5 °F -21.6 °F -17.0 °F 67% 30.27 in 10.0 mi WSW 5.8 mph - N/A   Clear
9:35 AM -7.2 °F -16.1 °F -16.4 °F 64% 30.27 in 10.0 mi WSW 3.5 mph - N/A   Clear
9:55 AM -6.5 °F -15.3 °F -15.9 °F 64% 30.27 in 10.0 mi WSW 3.5 mph - N/A   Clear
10:15 AM -5.8 °F -18.4 °F -15.3 °F 63% 30.27 in 10.0 mi SW 5.8 mph - N/A   Clear
10:35 AM -4.5 °F -15.2 °F -14.8 °F 61% 30.27 in 10.0 mi SW 4.6 mph - N/A   Clear
10:55 AM -3.6 °F -14.1 °F -14.1 °F 61% 30.26 in 10.0 mi WSW 4.6 mph - N/A   Clear
11:15 AM -3.1 °F -13.5 °F -13.9 °F 60% 30.25 in 10.0 mi SW 4.6 mph - N/A   Clear
11:35 AM -2.2 °F -12.5 °F -13.7 °F 58% 30.24 in 10.0 mi WSW 4.6 mph - N/A   Clear
11:55 AM -1.3 °F -13.1 °F -13.0 °F 58% 30.22 in 10.0 mi WSW 5.8 mph - N/A   Clear
12:15 PM -0.6 °F -12.2 °F -13.2 °F 55% 30.21 in 10.0 mi West 5.8 mph - N/A   Clear
12:35 PM -0.0 °F -14.2 °F -13.5 °F 53% 30.20 in 10.0 mi West 8.1 mph - N/A   Clear
12:55 PM 0.5 °F -11.0 °F -13.0 °F 53% 30.19 in 10.0 mi West 5.8 mph - N/A   Clear
1:15 PM 1.4 °F -9.9 °F -12.6 °F 52% 30.19 in 10.0 mi WSW 5.8 mph - N/A   Clear
1:35 PM 1.9 °F -10.6 °F -12.6 °F 51% 30.18 in 10.0 mi WSW 6.9 mph - N/A   Clear
1:55 PM 2.1 °F -10.4 °F -12.5 °F 51% 30.18 in 10.0 mi WSW 6.9 mph - N/A   Clear
2:15 PM 2.3 °F -8.8 °F -13.0 °F 49% 30.17 in 10.0 mi SW 5.8 mph - N/A   Clear
2:55 PM 2.8 °F -8.2 °F -13.4 °F 47% 30.17 in 10.0 mi SW 5.8 mph - N/A   Mostly Cloudy
3:15 PM 2.8 °F -8.2 °F -13.9 °F 46% 30.17 in 10.0 mi SW 5.8 mph - N/A   Scattered Clouds
3:35 PM 2.7 °F -8.4 °F -13.9 °F 46% 30.17 in 10.0 mi WSW 5.8 mph - N/A   Clear
3:55 PM 2.3 °F -8.8 °F -14.3 °F 46% 30.17 in 10.0 mi WSW 5.8 mph - N/A   Clear
4:15 PM 2.3 °F -8.8 °F -14.3 °F 46% 30.16 in 10.0 mi SW 5.8 mph - N/A   Clear
4:35 PM 2.3 °F -8.8 °F -13.9 °F 47% 30.16 in 10.0 mi WSW 5.8 mph - N/A   Clear
4:55 PM 2.3 °F -5.2 °F -13.5 °F 48% 30.16 in 10.0 mi WSW 3.5 mph - N/A   Mostly Cloudy
5:15 PM 2.3 °F -8.8 °F -13.0 °F 49% 30.16 in 10.0 mi WSW 5.8 mph - N/A   Mostly Cloudy
5:35 PM 2.3 °F -7.2 °F -13.0 °F 49% 30.16 in 10.0 mi WSW 4.6 mph - N/A   Mostly Cloudy
5:55 PM 2.3 °F -5.2 °F -12.8 °F 49% 30.16 in 10.0 mi West 3.5 mph - N/A   Overcast
6:15 PM 2.3 °F - -12.3 °F 51% 30.16 in 10.0 mi Calm Calm - N/A   Overcast
6:35 PM 2.3 °F -10.2 °F -12.8 °F 49% 30.16 in 10.0 mi West 6.9 mph - N/A   Overcast
6:55 PM 2.3 °F -10.2 °F -12.6 °F 50% 30.16 in 10.0 mi West 6.9 mph - N/A   Overcast
7:15 PM 2.3 °F -11.4 °F -13.0 °F 49% 30.16 in 10.0 mi West 8.1 mph - N/A   Overcast
7:35 PM 2.3 °F -5.2 °F -12.5 °F 50% 30.17 in 10.0 mi West 3.5 mph - N/A   Overcast
7:55 PM 2.3 °F -7.2 °F -11.9 °F 52% 30.16 in 10.0 mi West 4.6 mph - N/A   Overcast
8:15 PM 1.6 °F -11.0 °F -11.0 °F 56% 30.16 in 5.0 mi West 6.9 mph 16.1 mph N/A   Haze
8:35 PM 1.4 °F -6.2 °F -9.8 °F 60% 30.16 in 7.0 mi West 3.5 mph - N/A   Overcast
8:55 PM 1.4 °F -11.3 °F -8.9 °F 62% 30.16 in 7.0 mi West 6.9 mph - N/A Snow Light Snow
9:15 PM 1.2 °F -11.5 °F -8.7 °F 63% 30.16 in 10.0 mi West 6.9 mph - N/A   Overcast
9:35 PM 0.9 °F -6.9 °F -7.2 °F 69% 30.15 in 3.0 mi West 3.5 mph - N/A Snow Light Snow
9:55 PM 0.7 °F -10.7 °F -6.3 °F 72% 30.15 in 4.0 mi West 5.8 mph - N/A Snow Light Snow
10:15 PM 0.5 °F -12.3 °F -6.2 °F 74% 30.14 in 4.0 mi West 6.9 mph - N/A Snow Light Snow
10:35 PM 0.5 °F -13.6 °F -5.8 °F 75% 30.14 in 2.5 mi West 8.1 mph - N/A Snow Light Snow
10:55 PM 0.5 °F -12.3 °F -6.2 °F 74% 30.14 in 4.0 mi West 6.9 mph - N/A Snow Light Snow
11:15 PM 0.5 °F -12.3 °F -6.7 °F 72% 30.14 in 10.0 mi West 6.9 mph - N/A   Overcast
11:35 PM 0.5 °F -11.0 °F -7.2 °F 70% 30.14 in 10.0 mi West 5.8 mph - N/A   Overcast
11:55 PM 0.5 °F -12.3 °F -7.6 °F 69% 30.14 in 10.0 mi West 6.9 mph - N/A   Overcast